^^
Datos históricos de la estación: Murcia-Puente Tocinos
Diario Informe para Enero 21, 2019 Unidades:  Métrico    Inglés   Ambas
Diario Semanal Mensual Anual Configurable
  Máximo: Mínimo: Media:
Temperatura: 14.7 °C 7.7 °C 10.9 °C
Punto de rocio: 2.5 °C -1.7 °C 0.8 °C
Humedad: 64% 37% 51%
Velocidad viento: 20.9km/h 3.2km/h 11.1km/h
Racha viento: 37.0km/h - -
Viento- - West
Presión: 1018.4 hPa 1014.3 hPa -
Precipitación: 0.0 mm    
Historical Graphs
 
 
Tabla de datos para Enero 21, 2019
Hora Temperatura Punto de rocio Presión Viento Velocidad viento Racha viento Humedad Intensidad lluvia(por hora) Nubes
00:05 10.9 °C 1.7 °C 1014.3 hPa WNW 13.0 km/h 20.4 km/h 53% 0.0 mm RA
00:09 10.9 °C 1.9 °C 1014.3 hPa WNW 14.8 km/h 18.5 km/h 54% 0.0 mm RA
00:14 11.0 °C 2.1 °C 1014.3 hPa WNW 14.8 km/h 22.2 km/h 54% 0.0 mm CLR
00:19 11.1 °C 2.1 °C 1014.5 hPa West 14.8 km/h 19.0 km/h 54% 0.0 mm CLR
00:24 11.2 °C 2.2 °C 1014.5 hPa WNW 14.8 km/h 29.6 km/h 54% 0.0 mm CLR
00:29 11.2 °C 2.2 °C 1014.5 hPa WNW 14.8 km/h 29.6 km/h 54% 0.0 mm CLR
00:34 11.2 °C 2.2 °C 1014.5 hPa WNW 14.8 km/h 24.1 km/h 54% 0.0 mm CLR
00:39 11.2 °C 2.2 °C 1014.5 hPa SW 14.0 km/h 16.7 km/h 54% 0.0 mm CLR
00:44 11.2 °C 2.5 °C 1014.5 hPa WSW 14.0 km/h 13.0 km/h 55% 0.0 mm CLR
00:49 11.1 °C 2.4 °C 1014.7 hPa SSW 8.4 km/h 9.3 km/h 55% 0.0 mm CLR
00:54 10.9 °C 2.2 °C 1014.7 hPa South 8.4 km/h 11.1 km/h 55% 0.0 mm CLR
00:59 10.7 °C 2.3 °C 1014.7 hPa South 7.6 km/h 12.2 km/h 56% 0.0 mm CLR
01:04 10.4 °C 2.2 °C 1014.8 hPa SSE 7.6 km/h 14.8 km/h 57% 0.0 mm CLR
01:09 10.2 °C 2.1 °C 1014.8 hPa SSE 9.5 km/h 9.5 km/h 57% 0.0 mm CLR
01:14 10.1 °C 2.2 °C 1014.8 hPa SSW 9.5 km/h 16.7 km/h 58% 0.0 mm CLR
01:19 10.2 °C 2.3 °C 1014.8 hPa SE 8.4 km/h 16.7 km/h 58% 0.0 mm CLR
01:24 10.3 °C 2.4 °C 1014.8 hPa SSE 8.4 km/h 11.1 km/h 58% 0.0 mm CLR
01:29 10.4 °C 2.5 °C 1014.8 hPa South 9.5 km/h 9.3 km/h 58% 0.0 mm CLR
01:34 10.3 °C 2.4 °C 1014.7 hPa SE 9.5 km/h 8.4 km/h 58% 0.0 mm CLR
01:39 10.4 °C 2.5 °C 1014.7 hPa ESE 6.4 km/h 3.7 km/h 58% 0.0 mm CLR
01:45 10.3 °C 2.4 °C 1014.7 hPa SSW 6.4 km/h 7.4 km/h 58% 0.0 mm CLR
01:49 10.2 °C 2.3 °C 1014.6 hPa South 3.9 km/h 11.1 km/h 58% 0.0 mm CLR
01:54 10.2 °C 2.3 °C 1014.6 hPa SSW 3.9 km/h 11.9 km/h 58% 0.0 mm CLR
01:59 10.2 °C 2.3 °C 1014.6 hPa SSW 8.4 km/h 11.1 km/h 58% 0.0 mm CLR
02:05 10.1 °C 2.4 °C 1014.8 hPa South 8.4 km/h 14.8 km/h 59% 0.0 mm CLR
02:09 10.0 °C 2.3 °C 1014.8 hPa SSE 8.7 km/h 9.3 km/h 59% 0.0 mm CLR
02:15 9.9 °C 2.3 °C 1014.8 hPa SSE 9.7 km/h 11.3 km/h 59% 0.0 mm CLR
02:19 9.9 °C 2.3 °C 1015.0 hPa SSE 6.4 km/h 9.3 km/h 59% 0.0 mm CLR
02:25 9.8 °C 2.2 °C 1015.0 hPa SE 8.0 km/h 11.3 km/h 59% 0.0 mm CLR
02:29 9.8 °C 2.2 °C 1015.0 hPa SSE 7.6 km/h 10.0 km/h 59% 0.0 mm CLR
02:34 9.9 °C 2.3 °C 1015.1 hPa SW 7.6 km/h 8.7 km/h 59% 0.0 mm CLR
02:39 9.9 °C 2.3 °C 1015.1 hPa WSW 5.8 km/h 8.4 km/h 59% 0.0 mm CLR
02:45 9.9 °C 2.3 °C 1015.1 hPa SW 4.8 km/h 11.3 km/h 59% 0.0 mm CLR
02:49 9.9 °C 2.3 °C 1015.3 hPa SW 5.0 km/h 7.4 km/h 59% 0.0 mm CLR
02:55 9.9 °C 2.0 °C 1015.3 hPa SW 4.8 km/h 8.0 km/h 58% 0.0 mm CLR
02:59 10.0 °C 2.1 °C 1015.3 hPa WSW 5.8 km/h 7.4 km/h 58% 0.0 mm CLR
03:05 10.0 °C 2.1 °C 1015.4 hPa SW 5.8 km/h 7.4 km/h 58% 0.0 mm CLR
03:09 10.0 °C 2.1 °C 1015.4 hPa SW 6.4 km/h 9.3 km/h 58% 0.0 mm CLR
03:15 10.1 °C 1.9 °C 1015.4 hPa WSW 8.0 km/h 11.3 km/h 57% 0.0 mm CLR
03:19 10.1 °C 1.9 °C 1015.5 hPa WSW 6.9 km/h 14.8 km/h 57% 0.0 mm CLR
03:25 9.9 °C 1.8 °C 1015.5 hPa WSW 8.0 km/h 20.9 km/h 57% 0.0 mm CLR
03:29 10.0 °C 1.9 °C 1015.5 hPa WSW 10.3 km/h 20.4 km/h 57% 0.0 mm CLR
03:35 9.9 °C 1.8 °C 1015.7 hPa WSW 11.3 km/h 22.5 km/h 57% 0.0 mm CLR
03:39 9.9 °C 1.8 °C 1015.7 hPa West 10.0 km/h 11.1 km/h 57% 0.0 mm CLR
03:45 9.8 °C 1.9 °C 1015.7 hPa SW 10.0 km/h 14.8 km/h 58% 0.0 mm CLR
03:49 9.8 °C 1.9 °C 1015.8 hPa WSW 7.6 km/h 11.1 km/h 58% 0.0 mm CLR
03:55 9.7 °C 1.8 °C 1015.8 hPa WSW 7.6 km/h 7.4 km/h 58% 0.0 mm CLR
03:59 9.7 °C 1.8 °C 1015.8 hPa WSW 5.8 km/h 13.7 km/h 58% 0.0 mm CLR
04:04 9.7 °C 1.8 °C 1015.8 hPa West 5.8 km/h 13.0 km/h 58% 0.0 mm CLR
04:09 9.8 °C 1.7 °C 1015.8 hPa WNW 6.9 km/h 13.0 km/h 57% 0.0 mm CLR
04:15 9.8 °C 1.7 °C 1015.8 hPa West 6.9 km/h 13.0 km/h 57% 0.0 mm CLR
04:19 9.7 °C 1.8 °C 1015.7 hPa NW 6.9 km/h 11.1 km/h 58% 0.0 mm CLR
04:24 9.6 °C 1.7 °C 1015.7 hPa West 6.9 km/h 20.4 km/h 58% 0.0 mm CLR
04:29 9.4 °C 1.6 °C 1015.7 hPa WSW 9.5 km/h 13.0 km/h 58% 0.0 mm CLR
04:34 9.4 °C 1.6 °C 1015.6 hPa West 9.5 km/h 18.5 km/h 58% 0.0 mm CLR
04:39 9.4 °C 1.8 °C 1015.6 hPa WNW 11.9 km/h 13.0 km/h 59% 0.0 mm CLR
04:45 9.2 °C 1.6 °C 1015.6 hPa West 11.3 km/h 16.1 km/h 59% 0.0 mm CLR
04:49 9.0 °C 1.7 °C 1015.6 hPa West 10.3 km/h 13.0 km/h 60% 0.0 mm CLR
04:55 8.9 °C 1.6 °C 1015.6 hPa SW 10.3 km/h 11.1 km/h 60% 0.0 mm CLR
04:59 8.8 °C 1.7 °C 1015.6 hPa WSW 8.7 km/h 11.1 km/h 61% 0.0 mm CLR
05:05 8.7 °C 1.6 °C 1015.5 hPa West 9.7 km/h 14.5 km/h 61% 0.0 mm CLR
05:09 8.7 °C 1.6 °C 1015.5 hPa West 9.5 km/h 16.7 km/h 61% 0.0 mm CLR
05:15 8.8 °C 1.7 °C 1015.5 hPa West 9.5 km/h 14.8 km/h 61% 0.0 mm CLR
05:19 8.8 °C 1.7 °C 1015.5 hPa West 10.3 km/h 11.1 km/h 61% 0.0 mm CLR
05:25 8.7 °C 1.6 °C 1015.5 hPa West 11.3 km/h 14.5 km/h 61% 0.0 mm CLR
05:29 8.6 °C 1.5 °C 1015.5 hPa West 9.5 km/h 13.0 km/h 61% 0.0 mm CLR
05:35 8.6 °C 1.7 °C 1015.7 hPa WSW 9.7 km/h 14.5 km/h 62% 0.0 mm CLR
05:39 8.6 °C 1.7 °C 1015.7 hPa WSW 7.6 km/h 9.3 km/h 62% 0.0 mm CLR
05:45 8.6 °C 1.7 °C 1015.7 hPa WSW 7.6 km/h 7.4 km/h 62% 0.0 mm CLR
05:49 8.6 °C 1.7 °C 1015.7 hPa WSW 6.4 km/h 9.3 km/h 62% 0.0 mm CLR
05:55 8.5 °C 1.6 °C 1015.7 hPa WSW 8.0 km/h 12.9 km/h 62% 0.0 mm CLR
05:59 8.4 °C 1.6 °C 1015.7 hPa WSW 6.4 km/h 14.8 km/h 62% 0.0 mm CLR
06:05 8.4 °C 1.6 °C 1015.7 hPa WSW 6.4 km/h 16.7 km/h 62% 0.0 mm CLR
06:09 8.4 °C 1.6 °C 1015.7 hPa West 8.7 km/h 14.8 km/h 62% 0.0 mm CLR
06:15 8.4 °C 1.6 °C 1015.7 hPa West 8.7 km/h 14.8 km/h 62% 0.0 mm CLR
06:19 8.6 °C 1.7 °C 1015.7 hPa West 11.1 km/h 20.4 km/h 62% 0.0 mm CLR
06:25 8.5 °C 1.6 °C 1015.7 hPa West 11.1 km/h 20.4 km/h 62% 0.0 mm CLR
06:29 8.4 °C 1.6 °C 1015.7 hPa WSW 11.9 km/h 18.5 km/h 62% 0.0 mm CLR
06:35 8.4 °C 1.6 °C 1015.9 hPa SW 11.9 km/h 18.5 km/h 62% 0.0 mm CLR
06:39 8.4 °C 1.6 °C 1015.9 hPa WSW 11.9 km/h 20.4 km/h 62% 0.0 mm CLR
06:45 8.4 °C 1.6 °C 1015.9 hPa WSW 11.9 km/h 22.2 km/h 62% 0.0 mm CLR
06:49 8.3 °C 1.4 °C 1016.0 hPa WNW 13.7 km/h 13.7 km/h 62% 0.0 mm CLR
06:54 8.3 °C 1.4 °C 1016.0 hPa WNW 13.7 km/h 18.5 km/h 62% 0.0 mm CLR
07:00 8.3 °C 1.4 °C 1016.0 hPa West 12.9 km/h 20.9 km/h 62% 0.0 mm CLR
07:04 8.3 °C 1.4 °C 1016.2 hPa West 12.2 km/h 22.2 km/h 62% 0.0 mm CLR
07:09 8.3 °C 1.4 °C 1016.2 hPa WSW 11.1 km/h 17.2 km/h 62% 0.0 mm CLR
07:15 8.3 °C 1.4 °C 1016.2 hPa West 11.3 km/h 17.7 km/h 62% 0.0 mm CLR
07:19 8.3 °C 1.4 °C 1016.4 hPa WNW 9.5 km/h 9.3 km/h 62% 0.0 mm CLR
07:24 8.3 °C 1.4 °C 1016.4 hPa South 9.5 km/h 9.3 km/h 62% 0.0 mm CLR
07:29 8.2 °C 1.3 °C 1016.4 hPa South 5.0 km/h 11.1 km/h 62% 0.0 mm CLR
07:34 8.2 °C 1.6 °C 1016.6 hPa South 5.0 km/h 6.4 km/h 63% 0.0 mm CLR
07:39 8.0 °C 1.4 °C 1016.6 hPa SE 5.0 km/h 7.6 km/h 63% 0.0 mm CLR
07:45 7.8 °C 1.4 °C 1016.6 hPa South 4.8 km/h 11.3 km/h 64% 0.0 mm CLR
07:49 7.7 °C 1.3 °C 1016.6 hPa WNW 5.8 km/h 14.8 km/h 64% 0.0 mm CLR
07:54 7.8 °C 1.4 °C 1016.6 hPa WSW 5.8 km/h 25.1 km/h 64% 0.0 mm CLR
08:00 7.9 °C 1.3 °C 1016.6 hPa WSW 9.7 km/h 25.7 km/h 63% 0.0 mm CLR
08:05 7.9 °C 1.3 °C 1016.6 hPa WNW 10.0 km/h 14.8 km/h 63% 0.0 mm CLR
08:09 7.9 °C 1.3 °C 1016.6 hPa WSW 10.3 km/h 18.5 km/h 63% 0.0 mm CLR
08:15 7.8 °C 1.2 °C 1016.6 hPa West 10.3 km/h 13.0 km/h 63% 0.0 mm CLR
08:19 7.8 °C 1.2 °C 1016.7 hPa WSW 10.0 km/h 16.7 km/h 63% 0.0 mm CLR
08:25 7.8 °C 1.2 °C 1016.7 hPa West 9.7 km/h 20.9 km/h 63% 0.0 mm CLR
08:29 7.8 °C 1.2 °C 1016.7 hPa WSW 9.5 km/h 13.0 km/h 63% 0.0 mm CLR
08:34 7.8 °C 1.2 °C 1017.1 hPa WSW 9.5 km/h 11.1 km/h 63% 0.0 mm CLR
08:39 7.9 °C 1.3 °C 1017.1 hPa WSW 8.4 km/h 11.1 km/h 63% 0.0 mm CLR
08:45 7.9 °C 1.3 °C 1017.1 hPa SW 8.0 km/h 14.5 km/h 63% 0.0 mm CLR
08:49 7.9 °C 1.3 °C 1017.2 hPa WSW 8.4 km/h 10.0 km/h 63% 0.0 mm CLR
08:54 7.9 °C 1.3 °C 1017.2 hPa South 8.4 km/h 9.3 km/h 63% 0.0 mm CLR
08:59 7.9 °C 1.3 °C 1017.2 hPa WSW 6.4 km/h 13.0 km/h 63% 0.0 mm CLR
09:05 8.1 °C 1.5 °C 1017.3 hPa West 6.4 km/h 16.7 km/h 63% 0.0 mm CLR
09:09 8.2 °C 1.3 °C 1017.3 hPa WNW 7.6 km/h 16.7 km/h 62% 0.0 mm CLR
09:15 8.4 °C 1.6 °C 1017.3 hPa WSW 7.6 km/h 18.5 km/h 62% 0.0 mm CLR
09:19 8.4 °C 1.3 °C 1017.3 hPa WNW 10.3 km/h 16.7 km/h 61% 0.0 mm CLR
09:25 8.5 °C 1.4 °C 1017.3 hPa WSW 10.3 km/h 14.8 km/h 61% 0.0 mm CLR
09:29 8.6 °C 1.3 °C 1017.3 hPa West 10.0 km/h 20.4 km/h 60% 0.0 mm CLR
09:35 8.6 °C 1.3 °C 1017.5 hPa WSW 9.7 km/h 24.1 km/h 60% 0.0 mm CLR
09:39 8.7 °C 1.3 °C 1017.5 hPa SW 11.9 km/h 14.8 km/h 60% 0.0 mm CLR
09:45 8.8 °C 1.4 °C 1017.5 hPa West 11.9 km/h 22.2 km/h 60% 0.0 mm CLR
09:49 8.9 °C 1.3 °C 1017.6 hPa WSW 10.3 km/h 14.8 km/h 59% 0.0 mm CLR
09:55 8.9 °C 1.3 °C 1017.6 hPa West 11.3 km/h 19.3 km/h 59% 0.0 mm CLR
10:00 9.1 °C 1.5 °C 1017.6 hPa West 9.7 km/h 14.5 km/h 59% 0.0 mm CLR
10:05 9.2 °C 1.3 °C 1017.7 hPa WSW 10.0 km/h 18.5 km/h 58% 0.0 mm CLR
10:09 9.4 °C 1.6 °C 1017.7 hPa West 11.1 km/h 22.2 km/h 58% 0.0 mm CLR
10:15 9.5 °C 1.4 °C 1017.7 hPa West 11.1 km/h 22.2 km/h 57% 0.0 mm CLR
10:19 9.6 °C 1.5 °C 1017.8 hPa WNW 12.2 km/h 14.8 km/h 57% 0.0 mm CLR
10:25 9.7 °C 1.3 °C 1017.8 hPa West 12.9 km/h 24.1 km/h 56% 0.0 mm CLR
10:29 9.8 °C 1.4 °C 1017.8 hPa West 13.7 km/h 20.4 km/h 56% 0.0 mm CLR
10:35 9.9 °C 1.5 °C 1017.8 hPa West 13.7 km/h 7.6 km/h 56% 0.0 mm CLR
10:39 10.0 °C 1.4 °C 1017.8 hPa NW 10.3 km/h 25.9 km/h 55% 0.0 mm CLR
10:45 10.1 °C 1.4 °C 1017.8 hPa WNW 11.3 km/h 33.8 km/h 55% 0.0 mm CLR
10:49 10.1 °C 1.2 °C 1017.8 hPa NW 14.8 km/h 33.3 km/h 54% 0.0 mm CLR
10:55 10.2 °C 1.6 °C 1017.8 hPa WNW 14.8 km/h 20.4 km/h 55% 0.0 mm CLR
11:00 10.3 °C 1.6 °C 1017.8 hPa WNW 16.1 km/h 22.5 km/h 55% 0.0 mm CLR
11:05 10.4 °C 1.8 °C 1018.1 hPa WNW 16.1 km/h 20.9 km/h 55% 0.0 mm CLR
11:09 10.4 °C 1.5 °C 1018.1 hPa WNW 11.1 km/h 25.9 km/h 54% 0.0 mm CLR
11:15 10.5 °C 1.6 °C 1018.1 hPa WNW 11.1 km/h 22.2 km/h 54% 0.0 mm CLR
11:19 10.6 °C 1.7 °C 1018.1 hPa WNW 17.2 km/h 23.7 km/h 54% 0.0 mm CLR
11:25 10.6 °C 1.7 °C 1018.1 hPa WNW 17.2 km/h 24.1 km/h 54% 0.0 mm CLR
11:29 10.8 °C 1.6 °C 1018.1 hPa WNW 16.1 km/h 20.4 km/h 53% 0.0 mm CLR
11:34 10.9 °C 1.7 °C 1018.1 hPa SW 16.1 km/h 22.2 km/h 53% 0.0 mm CLR
11:39 11.2 °C 1.7 °C 1018.1 hPa WNW 13.0 km/h 22.2 km/h 52% 0.0 mm CLR
11:45 11.2 °C 1.7 °C 1018.1 hPa West 12.9 km/h 29.0 km/h 52% 0.0 mm CLR
11:49 11.3 °C 1.5 °C 1018.1 hPa West 17.2 km/h 25.9 km/h 51% 0.0 mm CLR
11:54 11.4 °C 1.6 °C 1018.1 hPa WSW 17.2 km/h 18.5 km/h 51% 0.0 mm CLR
11:59 11.4 °C 1.3 °C 1018.1 hPa NW 15.6 km/h 29.6 km/h 50% 0.0 mm CLR
12:05 11.4 °C 1.6 °C 1018.0 hPa West 15.6 km/h 27.8 km/h 51% 0.0 mm CLR
12:09 11.6 °C 1.8 °C 1018.0 hPa West 20.9 km/h 18.5 km/h 51% 0.0 mm CLR
12:15 11.8 °C 1.7 °C 1018.0 hPa WNW 20.9 km/h 20.9 km/h 50% 0.0 mm CLR
12:19 12.0 °C 1.9 °C 1017.9 hPa WSW 13.7 km/h 20.4 km/h 50% 0.0 mm CLR
12:25 12.1 °C 1.4 °C 1017.9 hPa WNW 12.9 km/h 27.4 km/h 48% 0.0 mm CLR
12:29 12.2 °C 1.5 °C 1017.9 hPa NW 16.4 km/h 20.4 km/h 48% 0.0 mm CLR
12:35 12.3 °C 1.3 °C 1017.7 hPa West 16.4 km/h 24.1 km/h 47% 0.0 mm CLR
12:39 12.4 °C 1.4 °C 1017.7 hPa WNW 14.8 km/h 18.5 km/h 47% 0.0 mm CLR
12:45 12.6 °C 1.6 °C 1017.7 hPa WNW 14.8 km/h 18.5 km/h 47% 0.0 mm CLR
12:49 12.6 °C 1.6 °C 1017.4 hPa WNW 14.8 km/h 18.5 km/h 47% 0.0 mm CLR
12:55 12.8 °C 1.4 °C 1017.4 hPa WNW 14.5 km/h 19.3 km/h 46% 0.0 mm CLR
13:00 12.9 °C 1.2 °C 1017.4 hPa WNW 11.3 km/h 24.1 km/h 45% 0.0 mm CLR
13:05 12.8 °C 0.8 °C 1017.2 hPa NW 11.1 km/h 20.4 km/h 44% 0.0 mm CLR
13:09 12.9 °C 1.2 °C 1017.2 hPa West 16.4 km/h 25.9 km/h 45% 0.0 mm CLR
13:15 13.1 °C 1.1 °C 1017.2 hPa WNW 16.4 km/h 22.2 km/h 44% 0.0 mm CLR
13:19 13.3 °C 0.9 °C 1017.0 hPa WNW 14.0 km/h 18.5 km/h 43% 0.0 mm FEW
13:25 13.2 °C 0.9 °C 1017.0 hPa WNW 14.0 km/h 29.6 km/h 43% 0.0 mm FEW
13:29 13.2 °C 0.9 °C 1017.0 hPa WNW 17.2 km/h 22.2 km/h 43% 0.0 mm FEW
13:35 13.3 °C 0.9 °C 1016.8 hPa WNW 16.1 km/h 30.6 km/h 43% 0.0 mm FEW
13:39 13.4 °C 0.7 °C 1016.8 hPa NW 16.1 km/h 25.9 km/h 42% 0.0 mm FEW
13:45 13.5 °C 0.5 °C 1016.8 hPa WNW 16.1 km/h 25.7 km/h 41% 0.0 mm FEW
13:50 13.5 °C 0.8 °C 1016.6 hPa WNW 14.0 km/h 20.4 km/h 42% 0.0 mm FEW
13:55 13.6 °C 0.6 °C 1016.6 hPa WNW 14.5 km/h 24.1 km/h 41% 0.0 mm FEW
14:00 13.7 °C 0.7 °C 1016.6 hPa NW 12.9 km/h 19.3 km/h 41% 0.0 mm FEW
14:05 13.8 °C 0.7 °C 1016.5 hPa NW 12.9 km/h 24.1 km/h 41% 0.0 mm FEW
14:09 13.8 °C 0.4 °C 1016.5 hPa NW 13.0 km/h 22.2 km/h 40% 0.0 mm FEW
14:15 13.9 °C 0.5 °C 1016.5 hPa WNW 13.0 km/h 25.9 km/h 40% 0.0 mm FEW
14:19 13.9 °C 0.5 °C 1016.4 hPa NW 14.0 km/h 23.3 km/h 40% 0.0 mm FEW
14:25 13.9 °C 0.5 °C 1016.4 hPa WNW 14.5 km/h 30.6 km/h 40% 0.0 mm FEW
14:29 13.9 °C 0.5 °C 1016.4 hPa NW 17.2 km/h 25.9 km/h 40% 0.0 mm FEW
14:35 14.1 °C 0.7 °C 1016.2 hPa WNW 17.2 km/h 20.4 km/h 40% 0.0 mm FEW
14:39 14.2 °C 0.4 °C 1016.2 hPa WNW 16.4 km/h 18.5 km/h 39% 0.0 mm FEW
14:45 14.3 °C 0.5 °C 1016.2 hPa WNW 16.1 km/h 24.1 km/h 39% 0.0 mm FEW
14:50 14.2 °C 0.4 °C 1016.1 hPa NW 14.0 km/h 18.5 km/h 39% 0.0 mm FEW
14:55 14.2 °C 0.4 °C 1016.1 hPa North 14.0 km/h 13.0 km/h 39% 0.0 mm FEW
15:00 14.2 °C 0.4 °C 1016.1 hPa NNW 11.3 km/h 19.3 km/h 39% 0.0 mm FEW
15:05 14.4 °C 0.2 °C 1016.1 hPa NW 11.1 km/h 22.2 km/h 38% 0.0 mm FEW
15:09 14.4 °C 0.2 °C 1016.1 hPa WNW 11.9 km/h 14.8 km/h 38% 0.0 mm FEW
15:15 14.4 °C 0.2 °C 1016.1 hPa WNW 11.9 km/h 24.1 km/h 38% 0.0 mm FEW
15:19 14.4 °C 0.2 °C 1016.0 hPa WSW 12.2 km/h 16.7 km/h 38% 0.0 mm FEW
15:25 14.5 °C -0.1 °C 1016.0 hPa West 12.9 km/h 37.0 km/h 37% 0.0 mm FEW
15:29 14.4 °C -0.1 °C 1016.0 hPa WNW 17.2 km/h 27.8 km/h 37% 0.0 mm FEW
15:35 14.4 °C -0.1 °C 1016.0 hPa WNW 16.1 km/h 33.8 km/h 37% 0.0 mm FEW
15:39 14.6 °C 0.1 °C 1016.0 hPa NW 17.2 km/h 37.0 km/h 37% 0.0 mm FEW
15:45 14.7 °C 0.2 °C 1016.0 hPa WNW 16.1 km/h 30.6 km/h 37% 0.0 mm FEW
15:49 14.6 °C 0.1 °C 1016.1 hPa NNW 18.0 km/h 29.6 km/h 37% 0.0 mm FEW
15:55 14.4 °C -0.1 °C 1016.1 hPa NW 19.3 km/h 33.8 km/h 37% 0.0 mm FEW
16:00 14.3 °C -0.2 °C 1016.1 hPa NW 20.9 km/h 32.2 km/h 37% 0.0 mm FEW
16:05 14.4 °C -0.1 °C 1016.1 hPa WNW 20.9 km/h 27.4 km/h 37% 0.0 mm FEW
16:09 14.4 °C -0.1 °C 1016.1 hPa WNW 18.3 km/h 28.6 km/h 37% 0.0 mm FEW
16:15 14.4 °C 0.2 °C 1016.1 hPa WNW 19.3 km/h 33.8 km/h 38% 0.0 mm FEW
16:19 14.3 °C 0.2 °C 1016.1 hPa WNW 18.0 km/h 24.1 km/h 38% 0.0 mm FEW
16:25 14.3 °C 0.2 °C 1016.1 hPa WNW 18.0 km/h 33.3 km/h 38% 0.0 mm FEW
16:29 14.4 °C 0.2 °C 1016.1 hPa West 16.4 km/h 29.6 km/h 38% 0.0 mm FEW
16:35 14.4 °C 0.2 °C 1016.1 hPa NW 16.4 km/h 25.9 km/h 38% 0.0 mm FEW
16:39 14.4 °C -0.1 °C 1016.1 hPa NW 18.0 km/h 27.0 km/h 37% 0.0 mm FEW
16:45 14.3 °C -0.2 °C 1016.1 hPa WNW 19.3 km/h 30.6 km/h 37% 0.0 mm FEW
16:50 14.2 °C -0.3 °C 1016.1 hPa WNW 19.0 km/h 29.6 km/h 37% 0.0 mm FEW
16:55 14.2 °C -0.3 °C 1016.1 hPa NW 19.0 km/h 29.6 km/h 37% 0.0 mm FEW
17:00 14.2 °C -0.3 °C 1016.1 hPa NW 19.3 km/h 32.2 km/h 37% 0.0 mm FEW
17:05 14.1 °C -0.4 °C 1016.3 hPa NW 18.0 km/h 22.2 km/h 37% 0.0 mm FEW
17:09 14.1 °C -0.4 °C 1016.3 hPa WNW 19.0 km/h 33.3 km/h 37% 0.0 mm FEW
17:15 14.1 °C -0.1 °C 1016.3 hPa WNW 19.3 km/h 27.4 km/h 38% 0.0 mm FEW
17:19 14.1 °C -0.4 °C 1016.3 hPa West 18.0 km/h 27.8 km/h 37% 0.0 mm FEW
17:25 14.1 °C -0.4 °C 1016.3 hPa West 18.0 km/h 27.8 km/h 37% 0.0 mm FEW
17:29 14.1 °C -0.4 °C 1016.3 hPa WNW 16.4 km/h 22.2 km/h 37% 0.0 mm FEW
17:35 14.0 °C -0.1 °C 1016.4 hPa NW 16.4 km/h 22.2 km/h 38% 0.0 mm FEW
17:39 14.0 °C -0.1 °C 1016.4 hPa WNW 14.0 km/h 20.4 km/h 38% 0.0 mm FEW
17:45 13.9 °C -0.2 °C 1016.4 hPa WNW 14.5 km/h 22.5 km/h 38% 0.0 mm FEW
17:50 13.9 °C -0.2 °C 1016.3 hPa WNW 13.7 km/h 22.2 km/h 38% 0.0 mm FEW
17:55 13.7 °C 0.0 °C 1016.3 hPa NW 13.7 km/h 22.2 km/h 39% 0.0 mm FEW
18:00 13.7 °C 0.0 °C 1016.3 hPa WNW 14.5 km/h 24.1 km/h 39% 0.0 mm FEW
18:05 13.6 °C -0.1 °C 1016.5 hPa WNW 14.8 km/h 19.0 km/h 39% 0.0 mm FEW
18:09 13.5 °C -0.2 °C 1016.5 hPa West 14.0 km/h 20.4 km/h 39% 0.0 mm FEW
18:15 13.4 °C -0.3 °C 1016.5 hPa WNW 14.5 km/h 20.9 km/h 39% 0.0 mm FEW
18:19 13.3 °C -0.1 °C 1016.5 hPa West 12.2 km/h 14.8 km/h 40% 0.0 mm FEW
18:25 13.2 °C -0.1 °C 1016.5 hPa WNW 12.9 km/h 22.5 km/h 40% 0.0 mm FEW
18:29 13.1 °C -0.2 °C 1016.5 hPa West 11.9 km/h 14.8 km/h 40% 0.0 mm FEW
18:35 13.0 °C 0.1 °C 1016.6 hPa West 11.9 km/h 19.8 km/h 41% 0.0 mm FEW
18:39 13.0 °C 0.1 °C 1016.6 hPa WNW 11.1 km/h 16.7 km/h 41% 0.0 mm FEW
18:45 12.9 °C -0.1 °C 1016.6 hPa West 11.1 km/h 11.9 km/h 41% 0.0 mm FEW
18:49 12.8 °C -0.2 °C 1016.6 hPa West 10.3 km/h 13.0 km/h 41% 0.0 mm FEW
18:55 12.7 °C 0.1 °C 1016.6 hPa WNW 10.3 km/h 13.0 km/h 42% 0.0 mm FEW
18:59 12.5 °C -0.1 °C 1016.6 hPa WNW 10.0 km/h 14.0 km/h 42% 0.0 mm FEW
19:05 12.4 °C -0.2 °C 1016.8 hPa WNW 9.7 km/h 16.1 km/h 42% 0.0 mm FEW
19:09 12.3 °C 0.1 °C 1016.8 hPa WNW 9.5 km/h 14.8 km/h 43% 0.0 mm FEW
19:15 12.3 °C 0.1 °C 1016.8 hPa WNW 9.7 km/h 12.9 km/h 43% 0.0 mm FEW
19:19 12.2 °C 0.0 °C 1016.8 hPa WNW 8.7 km/h 11.1 km/h 43% 0.0 mm FEW
19:25 12.1 °C 0.2 °C 1016.8 hPa West 8.7 km/h 9.3 km/h 44% 0.0 mm FEW
19:29 11.9 °C 0.0 °C 1016.8 hPa WSW 6.9 km/h 7.4 km/h 44% 0.0 mm FEW
19:34 11.8 °C -0.1 °C 1017.0 hPa SW 6.9 km/h 8.4 km/h 44% 0.0 mm FEW
19:39 11.9 °C 0.0 °C 1017.0 hPa SW 5.8 km/h 13.0 km/h 44% 0.0 mm FEW
19:45 11.9 °C 0.0 °C 1017.0 hPa WSW 5.8 km/h 13.0 km/h 44% 0.0 mm FEW
19:49 11.9 °C -0.3 °C 1017.1 hPa SW 9.5 km/h 14.8 km/h 43% 0.0 mm FEW
19:55 11.9 °C -0.3 °C 1017.1 hPa SW 9.7 km/h 16.1 km/h 43% 0.0 mm FEW
20:00 11.9 °C -0.3 °C 1017.1 hPa SW 9.7 km/h 16.1 km/h 43% 0.0 mm FEW
20:05 11.8 °C -0.4 °C 1017.2 hPa SW 8.7 km/h 9.3 km/h 43% 0.0 mm FEW
20:09 11.7 °C -0.2 °C 1017.2 hPa SW 8.4 km/h 13.0 km/h 44% 0.0 mm FEW
20:15 11.6 °C -0.3 °C 1017.2 hPa WSW 8.4 km/h 14.8 km/h 44% 0.0 mm FEW
20:19 11.4 °C -0.4 °C 1017.3 hPa WSW 8.4 km/h 14.8 km/h 44% 0.0 mm CLR
20:25 11.4 °C -0.1 °C 1017.3 hPa SSW 8.4 km/h 11.1 km/h 45% 0.0 mm CLR
20:29 11.2 °C -0.3 °C 1017.3 hPa SSW 8.4 km/h 16.7 km/h 45% 0.0 mm CLR
20:35 11.2 °C -0.3 °C 1017.4 hPa SW 8.4 km/h 16.7 km/h 45% 0.0 mm CLR
20:39 11.1 °C -0.1 °C 1017.4 hPa SW 10.3 km/h 13.0 km/h 46% 0.0 mm CLR
20:45 11.1 °C -0.1 °C 1017.4 hPa SW 10.3 km/h 16.7 km/h 46% 0.0 mm CLR
20:49 11.0 °C -0.2 °C 1017.4 hPa SSW 9.5 km/h 13.0 km/h 46% 0.0 mm CLR
20:55 11.0 °C -0.2 °C 1017.4 hPa SW 9.7 km/h 14.5 km/h 46% 0.0 mm CLR
21:00 11.0 °C -0.2 °C 1017.4 hPa SSW 8.0 km/h 14.5 km/h 46% 0.0 mm CLR
21:05 10.9 °C 0.0 °C 1017.5 hPa SSW 8.0 km/h 9.7 km/h 47% 0.0 mm CLR
21:09 10.7 °C 0.1 °C 1017.5 hPa SSW 5.0 km/h 7.4 km/h 48% 0.0 mm CLR
21:15 10.4 °C -0.2 °C 1017.5 hPa SSW 4.8 km/h 9.7 km/h 48% 0.0 mm CLR
21:19 10.2 °C -0.1 °C 1017.7 hPa South 5.8 km/h 11.1 km/h 49% 0.0 mm CLR
21:25 10.1 °C -0.2 °C 1017.7 hPa South 5.8 km/h 7.4 km/h 49% 0.0 mm CLR
21:29 10.0 °C -0.2 °C 1017.7 hPa SSW 5.8 km/h 9.3 km/h 49% 0.0 mm CLR
21:35 10.0 °C -0.2 °C 1017.7 hPa SSW 4.8 km/h 8.0 km/h 49% 0.0 mm CLR
21:39 10.0 °C -0.2 °C 1017.7 hPa SW 5.8 km/h 7.4 km/h 49% 0.0 mm CLR
21:45 10.0 °C -0.2 °C 1017.7 hPa SSW 4.8 km/h 9.7 km/h 49% 0.0 mm CLR
21:49 10.1 °C -0.2 °C 1017.8 hPa WSW 5.0 km/h 5.6 km/h 49% 0.0 mm CLR
21:55 10.1 °C -0.7 °C 1017.8 hPa WSW 4.8 km/h 11.3 km/h 47% 0.0 mm CLR
22:00 10.2 °C -0.9 °C 1017.8 hPa West 3.2 km/h 14.5 km/h 46% 0.0 mm CLR
22:05 10.3 °C -0.8 °C 1017.9 hPa West 3.2 km/h 16.1 km/h 46% 0.0 mm CLR
22:09 10.5 °C -0.9 °C 1017.9 hPa WSW 8.7 km/h 13.0 km/h 45% 0.0 mm CLR
22:15 10.6 °C -1.2 °C 1017.9 hPa WNW 8.7 km/h 11.1 km/h 44% 0.0 mm CLR
22:19 10.6 °C -1.2 °C 1017.9 hPa WNW 8.7 km/h 13.0 km/h 44% 0.0 mm CLR
22:25 10.5 °C -1.3 °C 1017.9 hPa WSW 8.7 km/h 14.8 km/h 44% 0.0 mm CLR
22:29 10.4 °C -1.3 °C 1017.9 hPa West 8.7 km/h 13.0 km/h 44% 0.0 mm CLR
22:35 10.3 °C -1.1 °C 1017.9 hPa West 9.7 km/h 11.3 km/h 45% 0.0 mm CLR
22:39 10.3 °C -1.1 °C 1017.9 hPa West 8.4 km/h 14.8 km/h 45% 0.0 mm CLR
22:44 10.2 °C -1.2 °C 1017.9 hPa West 8.4 km/h 14.8 km/h 45% 0.0 mm CLR
22:49 10.2 °C -1.2 °C 1018.0 hPa West 8.7 km/h 11.1 km/h 45% 0.0 mm CLR
22:55 10.1 °C -1.3 °C 1018.0 hPa WSW 8.7 km/h 11.1 km/h 45% 0.0 mm CLR
23:00 10.0 °C -1.4 °C 1018.0 hPa West 9.7 km/h 24.1 km/h 45% 0.0 mm CLR
23:05 9.9 °C -1.5 °C 1018.1 hPa West 10.0 km/h 11.1 km/h 45% 0.0 mm CLR
23:09 9.8 °C -1.3 °C 1018.1 hPa West 8.4 km/h 13.0 km/h 46% 0.0 mm CLR
23:15 9.8 °C -1.6 °C 1018.1 hPa NW 8.4 km/h 18.5 km/h 45% 0.0 mm CLR
23:19 9.7 °C -1.4 °C 1018.2 hPa NW 10.3 km/h 11.1 km/h 46% 0.0 mm CLR
23:25 9.7 °C -1.4 °C 1018.2 hPa WNW 10.3 km/h 15.6 km/h 46% 0.0 mm CLR
23:29 9.7 °C -1.7 °C 1018.2 hPa West 9.5 km/h 18.5 km/h 45% 0.0 mm CLR
23:35 9.7 °C -1.7 °C 1018.3 hPa WNW 9.5 km/h 20.4 km/h 45% 0.0 mm CLR
23:39 9.7 °C -1.4 °C 1018.3 hPa West 11.1 km/h 14.8 km/h 46% 0.0 mm CLR
23:45 9.6 °C -1.4 °C 1018.3 hPa West 11.3 km/h 19.3 km/h 46% 0.0 mm CLR
23:49 9.4 °C -1.7 °C 1018.4 hPa West 9.5 km/h 14.8 km/h 46% 0.0 mm CLR
23:55 9.4 °C -1.7 °C 1018.4 hPa WNW 9.5 km/h 11.1 km/h 46% 0.0 mm CLR
Murcia-Puente Tocinos, España
Compliments of Weather Underground - 2.75 mb

La estación de MeteoMurcia.com, publica sus datos en los siguientes proyectos:

Weather Underground PWS IMURCIAP2 Meteoclimatic www.awekas.at

W3Counter
Web Analytics